"Period start","avg(HW err(1)/warn(2) (#))","avg(Visibility (m))","avg(Weather code (#))","avg(Precip intensity (mm/h))","min(HW err(1)/warn(2) (#))","max(HW err(1)/warn(2) (#))","std(HW err(1)/warn(2) (#))","med(HW err(1)/warn(2) (#))","min(Visibility (m))","max(Visibility (m))","std(Visibility (m))","med(Visibility (m))","min(Weather code (#))","max(Weather code (#))","std(Weather code (#))","med(Weather code (#))","min(Precip intensity (mm/h))","max(Precip intensity (mm/h))","std(Precip intensity (mm/h))","med(Precip intensity (mm/h))"
2014-07-09 00:00:00,1,44015,0,0.00,0,2,1,0,36225,50000,4924,44332,0,0,0,0,0.00,0.00,0.00,0.00
2014-07-09 00:10:00,0,42401,0,0.00,0,0,0,0,29769,50000,7161,43014,0,0,0,0,0.00,0.00,0.00,0.00
2014-07-09 00:20:00,1,33942,0,0.00,0,2,1,1,4225,50000,17446,40179,0,0,0,0,0.00,0.00,0.00,0.00
2014-07-09 00:30:00,1,26571,0,0.00,0,2,1,1,9434,40579,10781,25024,0,0,0,0,0.00,0.00,0.00,0.00
2014-07-09 00:40:00,0,40221,0,0.00,0,0,0,0,32044,50000,5609,40340,0,0,0,0,0.00,0.00,0.00,0.00
2014-07-09 00:50:00,1,43954,0,0.00,0,2,1,1,30637,50000,6053,46106,0,0,0,0,0.00,0.00,0.00,0.00
2014-07-09 01:00:00,2,42514,0,0.00,2,2,0,2,22496,50000,7561,44799,0,0,0,0,0.00,0.00,0.00,0.00
2014-07-09 01:10:00,2,41400,0,0.00,2,2,0,2,30609,50000,5946,41643,0,0,0,0,0.00,0.00,0.00,0.00
2014-07-09 01:20:00,1,46471,0,0.00,0,2,1,2,32179,50000,6918,50000,0,0,0,0,0.00,0.00,0.00,0.00
2014-07-09 01:30:00,0,45703,0,0.00,0,0,0,0,39227,50000,3405,44780,0,0,0,0,0.00,0.00,0.00,0.00
2014-07-09 01:40:00,0,44755,0,0.00,0,0,0,0,31800,50000,6039,47528,0,0,0,0,0.00,0.00,0.00,0.00
2014-07-09 01:50:00,0,48305,0,0.00,0,0,0,0,44652,50000,1751,48964,0,0,0,0,0.00,0.00,0.00,0.00
2014-07-09 02:00:00,0,41446,0,0.00,0,0,0,0,29092,50000,7842,39272,0,0,0,0,0.00,0.00,0.00,0.00
2014-07-09 02:10:00,0,46262,0,0.00,0,0,0,0,38300,50000,4562,49573,0,0,0,0,0.00,0.00,0.00,0.00
2014-07-09 02:20:00,0,46544,0,0.00,0,0,0,0,33127,50000,5617,49104,0,0,0,0,0.00,0.00,0.00,0.00
2014-07-09 02:30:00,0,44928,0,0.00,0,0,0,0,34113,50000,5682,47470,0,0,0,0,0.00,0.00,0.00,0.00
2014-07-09 02:40:00,0,43161,0,0.00,0,0,0,0,26673,50000,6432,43776,0,0,0,0,0.00,0.00,0.00,0.00
2014-07-09 02:50:00,0,47955,0,0.00,0,0,0,0,41121,50000,3237,50000,0,0,0,0,0.00,0.00,0.00,0.00
2014-07-09 03:00:00,0,48569,0,0.00,0,0,0,0,45227,50000,1901,50000,0,0,0,0,0.00,0.00,0.00,0.00
2014-07-09 03:10:00,0,48166,0,0.00,0,0,0,0,42195,50000,2516,49470,0,0,0,0,0.00,0.00,0.00,0.00
2014-07-09 03:20:00,0,46370,0,0.00,0,0,0,0,36414,50000,4943,49906,0,0,0,0,0.00,0.00,0.00,0.00
2014-07-09 03:30:00,0,45842,0,0.00,0,0,0,0,32488,50000,5656,49092,0,0,0,0,0.00,0.00,0.00,0.00
2014-07-09 03:40:00,0,47814,0,0.00,0,0,0,0,38923,50000,3670,50000,0,0,0,0,0.00,0.00,0.00,0.00
2014-07-09 03:50:00,0,43680,0,0.00,0,0,0,0,36358,47720,3745,45450,0,0,0,0,0.00,0.00,0.00,0.00
2014-07-09 04:00:00,0,45247,0,0.00,0,0,0,0,32934,50000,6766,49836,0,0,0,0,0.00,0.00,0.00,0.00
2014-07-09 04:10:00,0,40389,0,0.00,0,0,0,0,28209,49329,6874,40836,0,0,0,0,0.00,0.00,0.00,0.00
2014-07-09 04:20:00,0,45407,0,0.00,0,0,0,0,39150,50000,3375,46109,0,0,0,0,0.00,0.00,0.00,0.00
2014-07-09 04:30:00,0,45013,0,0.00,0,0,0,0,38466,50000,4073,45592,0,0,0,0,0.00,0.00,0.00,0.00
2014-07-09 04:40:00,0,45698,0,0.00,0,0,0,0,36645,50000,4783,48112,0,0,0,0,0.00,0.00,0.00,0.00
2014-07-09 04:50:00,0,49452,0,0.00,0,0,0,0,47208,50000,1096,50000,0,0,0,0,0.00,0.00,0.00,0.00
2014-07-09 05:00:00,0,47868,0,0.00,0,0,0,0,42449,50000,2857,49323,0,0,0,0,0.00,0.00,0.00,0.00
2014-07-09 05:10:00,0,28163,0,0.00,0,0,0,0,5125,50000,19758,29664,0,0,0,0,0.00,0.00,0.00,0.00
2014-07-09 05:20:00,0,3309,4,0.00,0,0,0,0,1684,7342,1585,2680,4,4,0,4,0.00,0.00,0.00,0.00
2014-07-09 05:30:00,0,5150,4,0.00,0,0,0,0,2021,11804,3065,4256,4,4,0,4,0.00,0.00,0.00,0.00
2014-07-09 05:40:00,0,16684,3,0.00,0,0,0,0,7400,28494,6263,16711,0,4,2,4,0.00,0.00,0.00,0.00
2014-07-09 05:50:00,0,12246,2,0.00,0,0,0,0,3923,26907,7226,10052,0,4,2,2,0.00,0.00,0.00,0.00
2014-07-09 06:00:00,0,8033,4,0.00,0,0,0,0,3107,17294,4885,5915,4,4,0,4,0.00,0.00,0.00,0.00
2014-07-09 06:10:00,0,6203,4,0.00,0,0,0,0,4009,11164,2444,5012,4,4,0,4,0.00,0.00,0.00,0.00
2014-07-09 06:20:00,0,17153,4,0.00,0,0,0,0,2947,42238,11919,13596,4,4,0,4,0.00,0.00,0.00,0.00
2014-07-09 06:30:00,0,49834,1,0.00,0,0,0,0,48649,50000,406,50000,0,4,2,0,0.00,0.00,0.00,0.00
2014-07-09 06:40:00,0,49837,0,0.00,0,0,0,0,48369,50000,489,50000,0,0,0,0,0.00,0.00,0.00,0.00
2014-07-09 06:50:00,0,49978,0,0.00,0,0,0,0,49780,50000,66,50000,0,0,0,0,0.00,0.00,0.00,0.00
2014-07-09 07:00:00,0,49769,0,0.00,0,0,0,0,48088,50000,573,50000,0,0,0,0,0.00,0.00,0.00,0.00
2014-07-09 07:10:00,0,47002,0,0.00,0,0,0,0,40228,50000,3503,48600,0,0,0,0,0.00,0.00,0.00,0.00
2014-07-09 07:20:00,0,47166,0,0.00,0,0,0,0,41069,50000,3457,49234,0,0,0,0,0.00,0.00,0.00,0.00
2014-07-09 07:30:00,0,48754,0,0.00,0,0,0,0,40584,50000,2759,49843,0,0,0,0,0.00,0.00,0.00,0.00
2014-07-09 07:40:00,0,46466,0,0.00,0,0,0,0,38891,50000,3990,48422,0,0,0,0,0.00,0.00,0.00,0.00
2014-07-09 07:50:00,0,49858,0,0.00,0,0,0,0,48896,50000,334,50000,0,0,0,0,0.00,0.00,0.00,0.00
2014-07-09 08:00:00,0,49319,0,0.00,0,0,0,0,46175,50000,1292,50000,0,0,0,0,0.00,0.00,0.00,0.00
2014-07-09 08:10:00,0,49937,0,0.00,0,0,0,0,49367,50000,190,50000,0,0,0,0,0.00,0.00,0.00,0.00
2014-07-09 08:20:00,0,42781,0,0.00,0,0,0,0,17120,50000,10702,47915,0,0,0,0,0.00,0.00,0.00,0.00
2014-07-09 08:30:00,0,46037,0,0.00,0,0,0,0,38871,50000,4349,47994,0,0,0,0,0.00,0.00,0.00,0.00
2014-07-09 08:40:00,0,49708,0,0.00,0,0,0,0,48689,50000,517,50000,0,0,0,0,0.00,0.00,0.00,0.00
2014-07-09 08:50:00,0,49058,0,0.00,0,0,0,0,43793,50000,1999,50000,0,0,0,0,0.00,0.00,0.00,0.00
2014-07-09 09:00:00,0,49328,0,0.00,0,0,0,0,45553,50000,1429,50000,0,0,0,0,0.00,0.00,0.00,0.00
2014-07-09 09:10:00,0,47323,0,0.00,0,0,0,0,36190,50000,4101,49524,0,0,0,0,0.00,0.00,0.00,0.00
2014-07-09 09:20:00,0,49323,0,0.00,0,0,0,0,44970,50000,1492,50000,0,0,0,0,0.00,0.00,0.00,0.00
2014-07-09 09:30:00,0,48470,0,0.00,0,0,0,0,44530,50000,2061,50000,0,0,0,0,0.00,0.00,0.00,0.00
2014-07-09 09:40:00,0,49893,0,0.00,0,0,0,0,49308,50000,225,50000,0,0,0,0,0.00,0.00,0.00,0.00
2014-07-09 09:50:00,0,46207,0,0.00,0,0,0,0,31159,50000,5678,48782,0,0,0,0,0.00,0.00,0.00,0.00
2014-07-09 10:00:00,0,47211,0,0.00,0,0,0,0,40337,50000,3518,49854,0,0,0,0,0.00,0.00,0.00,0.00
2014-07-09 10:10:00,0,49012,0,0.00,0,0,0,0,44992,50000,1975,50000,0,0,0,0,0.00,0.00,0.00,0.00
2014-07-09 10:20:00,0,49914,0,0.00,0,0,0,0,49136,50000,259,50000,0,0,0,0,0.00,0.00,0.00,0.00
2014-07-09 10:30:00,0,50000,0,0.00,0,0,0,0,50000,50000,0,50000,0,0,0,0,0.00,0.00,0.00,0.00
2014-07-09 10:40:00,0,48406,0,0.00,0,0,0,0,44675,50000,1656,48574,0,0,0,0,0.00,0.00,0.00,0.00
2014-07-09 10:50:00,0,49907,0,0.00,0,0,0,0,49321,50000,209,50000,0,0,0,0,0.00,0.00,0.00,0.00
2014-07-09 11:00:00,0,49723,0,0.00,0,0,0,0,47739,50000,679,50000,0,0,0,0,0.00,0.00,0.00,0.00
2014-07-09 11:10:00,0,47424,0,0.00,0,0,0,0,38497,50000,4001,50000,0,0,0,0,0.00,0.00,0.00,0.00
2014-07-09 11:20:00,0,46771,0,0.00,0,0,0,0,33168,50000,4973,49122,0,0,0,0,0.00,0.00,0.00,0.00
2014-07-09 11:30:00,0,46809,0,0.00,0,0,0,0,39138,50000,3584,47626,0,0,0,0,0.00,0.00,0.00,0.00
2014-07-09 11:40:00,0,47446,0,0.00,0,0,0,0,41577,50000,2883,48421,0,0,0,0,0.00,0.00,0.00,0.00
2014-07-09 11:50:00,0,43658,0,0.00,0,0,0,0,37831,50000,4016,43906,0,0,0,0,0.00,0.00,0.00,0.00
2014-07-09 12:00:00,0,38628,0,0.00,0,0,0,0,14373,50000,11342,40470,0,0,0,0,0.00,0.00,0.00,0.00
2014-07-09 12:10:00,0,43519,0,0.00,0,0,0,0,33771,50000,5774,46030,0,0,0,0,0.00,0.00,0.00,0.00
2014-07-09 12:20:00,0,46938,0,0.00,0,0,0,0,33234,50000,5338,50000,0,0,0,0,0.00,0.00,0.00,0.00
2014-07-09 12:30:00,0,49422,0,0.00,0,0,0,0,46283,50000,1214,50000,0,0,0,0,0.00,0.00,0.00,0.00
2014-07-09 12:40:00,0,50000,0,0.00,0,0,0,0,50000,50000,0,50000,0,0,0,0,0.00,0.00,0.00,0.00
2014-07-09 12:50:00,0,49930,0,0.00,0,0,0,0,49584,50000,139,50000,0,0,0,0,0.00,0.00,0.00,0.00
2014-07-09 13:00:00,0,50000,0,0.00,0,0,0,0,50000,50000,0,50000,0,0,0,0,0.00,0.00,0.00,0.00
2014-07-09 13:10:00,0,50000,0,0.00,0,0,0,0,50000,50000,0,50000,0,0,0,0,0.00,0.00,0.00,0.00
2014-07-09 13:20:00,0,50000,0,0.00,0,0,0,0,50000,50000,0,50000,0,0,0,0,0.00,0.00,0.00,0.00
2014-07-09 13:30:00,0,49864,0,0.00,0,0,0,0,48641,50000,408,50000,0,0,0,0,0.00,0.00,0.00,0.00
2014-07-09 13:40:00,0,49129,0,0.00,0,0,0,0,41287,50000,2614,50000,0,0,0,0,0.00,0.00,0.00,0.00
2014-07-09 13:50:00,0,49642,0,0.00,0,0,0,0,47003,50000,887,50000,0,0,0,0,0.00,0.00,0.00,0.00
2014-07-09 14:00:00,0,50000,0,0.00,0,0,0,0,50000,50000,0,50000,0,0,0,0,0.00,0.00,0.00,0.00
2014-07-09 14:10:00,0,48980,0,0.00,0,0,0,0,45224,50000,1720,50000,0,0,0,0,0.00,0.00,0.00,0.00
2014-07-09 14:20:00,0,50000,0,0.00,0,0,0,0,50000,50000,0,50000,0,0,0,0,0.00,0.00,0.00,0.00
2014-07-09 14:30:00,0,50000,0,0.00,0,0,0,0,50000,50000,0,50000,0,0,0,0,0.00,0.00,0.00,0.00
2014-07-09 14:40:00,0,49590,0,0.00,0,0,0,0,45899,50000,1230,50000,0,0,0,0,0.00,0.00,0.00,0.00
2014-07-09 14:50:00,0,49953,0,0.00,0,0,0,0,49526,50000,142,50000,0,0,0,0,0.00,0.00,0.00,0.00
2014-07-09 15:00:00,0,49892,0,0.00,0,0,0,0,48922,50000,323,50000,0,0,0,0,0.00,0.00,0.00,0.00
2014-07-09 15:10:00,0,49995,0,0.00,0,0,0,0,49952,50000,14,50000,0,0,0,0,0.00,0.00,0.00,0.00
2014-07-09 15:20:00,0,48927,0,0.00,0,0,0,0,44649,50000,1767,49818,0,0,0,0,0.00,0.00,0.00,0.00
2014-07-09 15:30:00,0,48947,0,0.00,0,0,0,0,45453,50000,1700,50000,0,0,0,0,0.00,0.00,0.00,0.00
2014-07-09 15:40:00,0,48309,0,0.00,0,0,0,0,41838,50000,2861,50000,0,0,0,0,0.00,0.00,0.00,0.00
2014-07-09 15:50:00,0,50000,0,0.00,0,0,0,0,50000,50000,0,50000,0,0,0,0,0.00,0.00,0.00,0.00
2014-07-09 16:00:00,0,47747,0,0.00,0,0,0,0,43520,50000,2359,48540,0,0,0,0,0.00,0.00,0.00,0.00
2014-07-09 16:10:00,0,48991,0,0.00,0,0,0,0,46328,50000,1553,50000,0,0,0,0,0.00,0.00,0.00,0.00
2014-07-09 16:20:00,0,47753,0,0.00,0,0,0,0,43819,50000,2461,48918,0,0,0,0,0.00,0.00,0.00,0.00
2014-07-09 16:30:00,0,45854,0,0.00,0,0,0,0,30434,50000,5547,47319,0,0,0,0,0.00,0.00,0.00,0.00
2014-07-09 16:40:00,0,39931,0,0.00,0,0,0,0,29790,49849,6689,40696,0,0,0,0,0.00,0.00,0.00,0.00
2014-07-09 16:50:00,0,45116,0,0.00,0,0,0,0,37053,50000,3719,45250,0,0,0,0,0.00,0.00,0.00,0.00
2014-07-09 17:00:00,0,47748,0,0.00,0,0,0,0,41141,50000,2969,49769,0,0,0,0,0.00,0.00,0.00,0.00
2014-07-09 17:10:00,0,49615,0,0.00,0,0,0,0,46906,50000,931,50000,0,0,0,0,0.00,0.00,0.00,0.00
2014-07-09 17:20:00,0,46818,0,0.00,0,0,0,0,35976,50000,3944,47832,0,0,0,0,0.00,0.00,0.00,0.00
2014-07-09 17:30:00,0,48734,0,0.00,0,0,0,0,39641,50000,3067,50000,0,0,0,0,0.00,0.00,0.00,0.00
2014-07-09 17:40:00,0,49626,0,0.00,0,0,0,0,46256,50000,1123,50000,0,0,0,0,0.00,0.00,0.00,0.00
2014-07-09 17:50:00,0,50000,0,0.00,0,0,0,0,50000,50000,0,50000,0,0,0,0,0.00,0.00,0.00,0.00
2014-07-09 18:00:00,0,49494,0,0.00,0,0,0,0,48074,50000,780,50000,0,0,0,0,0.00,0.00,0.00,0.00
2014-07-09 18:10:00,0,49935,0,0.00,0,0,0,0,49353,50000,194,50000,0,0,0,0,0.00,0.00,0.00,0.00
2014-07-09 18:20:00,0,49676,0,0.00,0,0,0,0,47613,50000,733,50000,0,0,0,0,0.00,0.00,0.00,0.00
2014-07-09 18:30:00,0,47682,0,0.00,0,0,0,0,35457,50000,4507,50000,0,0,0,0,0.00,0.00,0.00,0.00
2014-07-09 18:40:00,0,49129,0,0.00,0,0,0,0,44234,50000,1716,50000,0,0,0,0,0.00,0.00,0.00,0.00
2014-07-09 18:50:00,0,48667,0,0.00,0,0,0,0,40305,50000,2887,50000,0,0,0,0,0.00,0.00,0.00,0.00
2014-07-09 19:00:00,0,49010,0,0.00,0,0,0,0,43955,50000,1801,50000,0,0,0,0,0.00,0.00,0.00,0.00
2014-07-09 19:10:00,0,49831,0,0.00,0,0,0,0,48646,50000,408,50000,0,0,0,0,0.00,0.00,0.00,0.00
2014-07-09 19:20:00,0,49917,0,0.00,0,0,0,0,49170,50000,249,50000,0,0,0,0,0.00,0.00,0.00,0.00
2014-07-09 19:30:00,0,49745,0,0.00,0,0,0,0,47452,50000,764,50000,0,0,0,0,0.00,0.00,0.00,0.00
2014-07-09 19:40:00,0,49562,0,0.00,0,0,0,0,47469,50000,777,49938,0,0,0,0,0.00,0.00,0.00,0.00
2014-07-09 19:50:00,0,50000,0,0.00,0,0,0,0,50000,50000,0,50000,0,0,0,0,0.00,0.00,0.00,0.00
2014-07-09 20:00:00,0,46306,0,0.00,0,0,0,0,28849,50000,6574,49112,0,0,0,0,0.00,0.00,0.00,0.00
2014-07-09 20:10:00,0,43239,0,0.00,0,0,0,0,14070,50000,11950,50000,0,0,0,0,0.00,0.00,0.00,0.00
2014-07-09 20:20:00,0,42544,0,0.00,0,0,0,0,26608,50000,8129,46270,0,0,0,0,0.00,0.00,0.00,0.00
2014-07-09 20:30:00,0,48435,0,0.00,0,0,0,0,43802,50000,2209,50000,0,0,0,0,0.00,0.00,0.00,0.00
2014-07-09 20:40:00,0,45235,0,0.00,0,0,0,0,37349,50000,4708,47030,0,0,0,0,0.00,0.00,0.00,0.00
2014-07-09 20:50:00,0,49653,0,0.00,0,0,0,0,46531,50000,1041,50000,0,0,0,0,0.00,0.00,0.00,0.00
2014-07-09 21:00:00,0,47242,0,0.00,0,0,0,0,36709,50000,4125,50000,0,0,0,0,0.00,0.00,0.00,0.00
2014-07-09 21:10:00,0,47534,0,0.00,0,0,0,0,40071,50000,3464,50000,0,0,0,0,0.00,0.00,0.00,0.00
2014-07-09 21:20:00,0,46457,0,0.00,0,0,0,0,37286,50000,3906,47460,0,0,0,0,0.00,0.00,0.00,0.00
2014-07-09 21:30:00,0,44774,0,0.00,0,0,0,0,19341,50000,9184,49734,0,0,0,0,0.00,0.00,0.00,0.00
2014-07-09 21:40:00,0,49536,0,0.00,0,0,0,0,48139,50000,720,50000,0,0,0,0,0.00,0.00,0.00,0.00
2014-07-09 21:50:00,0,47361,0,0.00,0,0,0,0,36285,50000,4124,49107,0,0,0,0,0.00,0.00,0.00,0.00
2014-07-09 22:00:00,0,46792,0,0.00,0,0,0,0,38272,50000,4174,48890,0,0,0,0,0.00,0.00,0.00,0.00
2014-07-09 22:10:00,0,46769,0,0.00,0,0,0,0,39307,50000,3963,48162,0,0,0,0,0.00,0.00,0.00,0.00
2014-07-09 22:20:00,0,48932,0,0.00,0,0,0,0,46221,50000,1502,50000,0,0,0,0,0.00,0.00,0.00,0.00
2014-07-09 22:30:00,0,50000,0,0.00,0,0,0,0,50000,50000,0,50000,0,0,0,0,0.00,0.00,0.00,0.00
2014-07-09 22:40:00,0,45155,0,0.00,0,0,0,0,26927,50000,7307,48902,0,0,0,0,0.00,0.00,0.00,0.00
2014-07-09 22:50:00,0,44507,0,0.00,0,0,0,0,16078,50000,10024,49094,0,0,0,0,0.00,0.00,0.00,0.00
2014-07-09 23:00:00,0,39458,0,0.00,0,0,0,0,31907,50000,5210,37852,0,0,0,0,0.00,0.00,0.00,0.00
2014-07-09 23:10:00,0,48542,0,0.00,0,0,0,0,44922,50000,1747,49132,0,0,0,0,0.00,0.00,0.00,0.00
2014-07-09 23:20:00,0,42837,0,0.00,0,0,0,0,34224,50000,4583,43712,0,0,0,0,0.00,0.00,0.00,0.00
2014-07-09 23:30:00,0,43962,0,0.00,0,0,0,0,36491,50000,4751,43426,0,0,0,0,0.00,0.00,0.00,0.00
2014-07-09 23:40:00,0,40564,0,0.00,0,0,0,0,27298,50000,7131,40880,0,0,0,0,0.00,0.00,0.00,0.00
2014-07-09 23:50:00,0,39194,0,0.00,0,0,0,0,22746,46228,6505,39722,0,0,0,0,0.00,0.00,0.00,0.00
